Location: Isola Pescaroli
(45.0500°N, 10.1667°E)
Time: 00:08:24
(UTC+00:00)

SL-4 R/B - Pass Details

Date: 16 June 2021
Orbit: 428 x 662 km, 51.6° (Epoch: 29 July)

Event Time Altitude Azimuth Distance (km) Brightness Sun altitude
Exits shadow 01:48:23 - 281° (W) 2,529 5.2 -13.7°
Reaches altitude 10° 01:50:45 10° 292° (WNW) 1,643 4.3 -13.5°
Maximum altitude 01:53:59 28° 354° (N) 884 3.6 -13.1°
Drops below altitude 10° 01:57:04 10° 56° (NE) 1,563 5.6 -12.8°
Sets 01:59:20 0° 68° (ENE) 2,413 6.4 -12.6°
